Weather History for K11R - April, 2013

Change the Weather History Date:

Wednesday, April 17, 2013

  Actual Average (KCLL) Record (KCLL)
Temperature  
Mean Temperature 80 °F 69 °F  
Max Temperature 84 °F 79 °F 93 °F (2006)
Min Temperature 75 °F 58 °F 36 °F (1999)
Degree Days  
Heating Degree Days 0 1  
Month to date heating degree days 37  
Since 1 July heating degree days 1596  
Cooling Degree Days 14 5  
Month to date cooling degree days 70  
Year to date cooling degree days 157  
Growing Degree Days 30 (Base 50)    
Moisture  
Dew Point 72 °F    
Average Humidity 80    
Maximum Humidity 91    
Minimum Humidity 62    
Precipitation  
Precipitation 0.00 in 0.09 in 2.94 in (2009)
Month to date precipitation 1.35  
Year to date precipitation 10.61  
Sea Level Pressure  
Sea Level Pressure 29.84 in    
Wind  
Wind Speed 10 mph (SE)    
Max Wind Speed 23 mph    
Max Gust Speed 30 mph    
Visibility 7 miles    
Events Rain    
T = Trace of Precipitation, MM = Missing Value Source: NWS Daily Summary

Daily Weather History Graph

Daily Weather History Graph

Search for Another Location

Airport or City:

Trip Planner

Search our weather history database for the weather conditions in past years. The results will help you decide how hot, cold, wet, or windy it might be!

Date:

Astronomy

Apr. 17, 2013 Rise Set
Actual Time 6:55 AM CDT 7:54 PM CDT
Civil Twilight 6:31 AM CDT 8:19 PM CDT
Nautical Twilight 6:02 AM CDT 8:48 PM CDT
Astronomical Twilight 5:32 AM CDT 9:18 PM CDT
Moon 12:18 PM CDT (4/17) 1:24 AM CDT (4/17)
Length of Visible Light 13h 47m
Length of Day
12h 58m
Waxing Crescent, 42% of the Moon is Illuminated
Apr 17
Waxing Crescent
Apr 18
First Quarter
Apr 25
Full
May 2
Last Quarter
May 9
New

Hourly Weather History & Observations

Time (CDT) Temp. Heat Index Dew Point Humidity Pressure Visibility Wind Dir Wind Speed Gust Speed Precip Events Conditions
12:15 AM 77.0 °F - 72.5 °F 86% 29.92 in 5.0 mi SSE 8.1 mph - N/A   Overcast
12:35 AM 77.0 °F - 72.3 °F 85% 29.92 in 5.0 mi SE 6.9 mph - N/A   Haze
12:55 AM 77.0 °F - 72.1 °F 85% 29.92 in 5.0 mi SE 6.9 mph - N/A   Haze
1:15 AM 77.0 °F - 72.0 °F 84% 29.93 in 7.0 mi SE 6.9 mph - N/A   Mostly Cloudy
1:35 AM 77.0 °F - 72.1 °F 85% 29.92 in 7.0 mi SE 6.9 mph - N/A   Mostly Cloudy
1:55 AM 77.0 °F - 72.0 °F 84% 29.93 in 7.0 mi SE 8.1 mph - N/A   Mostly Cloudy
2:15 AM 77.0 °F - 72.0 °F 84% 29.92 in 7.0 mi SSE 6.9 mph - N/A   Overcast
2:35 AM 77.0 °F - 71.8 °F 84% 29.91 in 7.0 mi SE 8.1 mph - N/A   Mostly Cloudy
2:55 AM 77.0 °F - 71.6 °F 83% 29.91 in 7.0 mi SE 9.2 mph 16.1 mph N/A   Overcast
3:15 AM 76.8 °F - 71.6 °F 84% 29.92 in 7.0 mi SSE 8.1 mph - N/A   Overcast
3:35 AM 76.5 °F - 71.6 °F 85% 29.91 in 7.0 mi SE 9.2 mph - N/A   Mostly Cloudy
3:55 AM 76.1 °F - 71.6 °F 86% 29.91 in 7.0 mi SE 8.1 mph - N/A   Scattered Clouds
4:15 AM 76.1 °F - 71.6 °F 86% 29.91 in 7.0 mi SE 6.9 mph 17.3 mph N/A   Scattered Clouds
4:35 AM 76.1 °F - 71.2 °F 85% 29.90 in 7.0 mi SE 10.4 mph 18.4 mph N/A   Scattered Clouds
4:55 AM 75.7 °F - 70.9 °F 85% 29.90 in 10.0 mi SE 8.1 mph 17.3 mph N/A   Scattered Clouds
5:15 AM 76.1 °F - 70.7 °F 83% 29.90 in 10.0 mi SE 10.4 mph - N/A   Scattered Clouds
5:35 AM 76.1 °F - 70.7 °F 83% 29.91 in 10.0 mi SE 8.1 mph - N/A   Mostly Cloudy
5:55 AM 76.1 °F - 70.7 °F 83% 29.91 in 10.0 mi SE 9.2 mph - N/A   Overcast
6:15 AM 75.7 °F - 70.7 °F 84% 29.90 in 10.0 mi SE 9.2 mph - N/A   Mostly Cloudy
6:35 AM 75.7 °F - 70.9 °F 85% 29.90 in 10.0 mi SE 9.2 mph - N/A   Mostly Cloudy
6:55 AM 75.6 °F - 70.7 °F 85% 29.91 in 7.0 mi SE 10.4 mph - N/A   Mostly Cloudy
7:15 AM 75.6 °F - 70.9 °F 85% 29.91 in 7.0 mi SE 8.1 mph - N/A   Mostly Cloudy
7:35 AM 75.6 °F - 70.9 °F 85% 29.92 in 7.0 mi SE 8.1 mph - N/A   Overcast
7:55 AM 75.9 °F - 70.9 °F 84% 29.92 in 7.0 mi SE 8.1 mph - N/A   Mostly Cloudy
8:15 AM 76.3 °F - 70.9 °F 83% 29.92 in 7.0 mi SE 8.1 mph - N/A   Mostly Cloudy
8:35 AM 76.5 °F - 70.9 °F 83% 29.92 in 7.0 mi SSE 9.2 mph - N/A   Overcast
8:55 AM 77.0 °F - 71.6 °F 83% 29.91 in 7.0 mi SE 9.2 mph - N/A   Overcast
9:15 AM 77.9 °F - 71.1 °F 79% 29.90 in 7.0 mi SE 10.4 mph 19.6 mph N/A   Mostly Cloudy
9:35 AM 78.3 °F - 71.1 °F 78% 29.90 in 10.0 mi SSE 13.8 mph 20.7 mph N/A   Mostly Cloudy
9:55 AM 78.6 °F - 70.7 °F 77% 29.91 in 10.0 mi SSE 15.0 mph 21.9 mph N/A   Overcast
10:15 AM 79.7 °F - 70.9 °F 74% 29.90 in 10.0 mi SSE 12.7 mph 17.3 mph N/A   Mostly Cloudy
10:35 AM 79.7 °F - 70.0 °F 72% 29.90 in 10.0 mi SSE 13.8 mph 21.9 mph N/A   Mostly Cloudy
10:55 AM 81.3 °F 85.0 °F 70.3 °F 69% 29.90 in 10.0 mi SE 18.4 mph 24.2 mph N/A   Mostly Cloudy
11:15 AM 81.5 °F 85.1 °F 70.2 °F 68% 29.89 in 10.0 mi SSE 12.7 mph 20.7 mph N/A   Mostly Cloudy
11:35 AM 83.1 °F 87.3 °F 70.2 °F 65% 29.89 in 10.0 mi SSE 15.0 mph 24.2 mph N/A   Scattered Clouds
11:55 AM 82.4 °F 86.1 °F 69.4 °F 65% 29.88 in 10.0 mi SSE 15.0 mph 24.2 mph N/A   Mostly Cloudy
12:15 PM 83.8 °F 87.8 °F 69.4 °F 62% 29.87 in 10.0 mi SE 16.1 mph 23.0 mph N/A   Mostly Cloudy
12:35 PM 83.7 °F 87.5 °F 69.3 °F 62% 29.86 in 10.0 mi SSE 17.3 mph 23.0 mph N/A   Scattered Clouds
12:55 PM 84.0 °F 88.1 °F 69.8 °F 62% 29.85 in 10.0 mi SE 17.3 mph 25.3 mph N/A   Mostly Cloudy
1:15 PM 83.1 °F 87.1 °F 70.0 °F 64% 29.85 in 10.0 mi SSE 18.4 mph 29.9 mph N/A   Mostly Cloudy
1:35 PM 84.4 °F 89.4 °F 70.9 °F 64% 29.83 in 10.0 mi SE 23.0 mph 29.9 mph N/A   Scattered Clouds
1:55 PM 83.3 °F 87.9 °F 70.9 °F 66% 29.83 in 10.0 mi SE 19.6 mph 25.3 mph N/A   Mostly Cloudy
2:15 PM 84.0 °F 89.0 °F 71.1 °F 65% 29.82 in 10.0 mi SSE 19.6 mph 27.6 mph N/A   Scattered Clouds
2:35 PM 82.4 °F 87.0 °F 71.2 °F 69% 29.82 in 10.0 mi SE 17.3 mph 28.8 mph N/A   Scattered Clouds
2:55 PM 82.6 °F 87.1 °F 71.1 °F 68% 29.81 in 10.0 mi SSE 15.0 mph 23.0 mph N/A   Mostly Cloudy
3:35 PM 82.6 °F 87.1 °F 71.2 °F 68% 29.79 in 7.0 mi SE 12.7 mph 21.9 mph N/A   Mostly Cloudy
3:55 PM 82.6 °F 87.3 °F 71.4 °F 69% 29.77 in 7.0 mi SSE 12.7 mph 21.9 mph N/A   Mostly Cloudy
4:15 PM 82.9 °F 88.0 °F 72.0 °F 69% 29.77 in 7.0 mi SE 13.8 mph 19.6 mph N/A   Mostly Cloudy
4:35 PM 81.7 °F 86.7 °F 72.5 °F 74% 29.76 in 7.0 mi SE 16.1 mph 23.0 mph N/A   Mostly Cloudy
4:55 PM 80.1 °F 84.1 °F 72.7 °F 78% 29.76 in 7.0 mi SE 17.3 mph 21.9 mph N/A   Overcast
5:15 PM 78.8 °F - 73.6 °F 84% 29.76 in 5.0 mi SE 16.1 mph 23.0 mph N/A   Haze
5:35 PM 77.9 °F - 73.4 °F 86% 29.75 in 4.0 mi SE 10.4 mph 20.7 mph N/A   Haze
5:55 PM 77.9 °F - 73.6 °F 86% 29.74 in 5.0 mi SE 13.8 mph 18.4 mph N/A   Overcast
6:15 PM 77.9 °F - 73.4 °F 86% 29.74 in 5.0 mi SE 13.8 mph 21.9 mph N/A   Haze
6:35 PM 77.9 °F - 73.4 °F 86% 29.75 in 4.0 mi SE 10.4 mph 23.0 mph N/A Rain Light Rain
6:55 PM 78.8 °F - 73.4 °F 83% 29.74 in 4.0 mi SE 11.5 mph 18.4 mph N/A Rain Light Rain
7:15 PM 77.7 °F - 73.4 °F 86% 29.74 in 3.0 mi SE 13.8 mph 17.3 mph N/A Rain Rain
7:35 PM 77.2 °F - 73.4 °F 88% 29.74 in 4.0 mi SE 12.7 mph 17.3 mph N/A   Drizzle
7:55 PM 77.0 °F - 73.4 °F 89% 29.73 in 3.0 mi SE 13.8 mph 20.7 mph N/A   Light Drizzle
8:15 PM 76.6 °F - 73.4 °F 90% 29.73 in 3.0 mi SE 13.8 mph 19.6 mph N/A   Overcast
8:35 PM 76.5 °F - 73.4 °F 90% 29.74 in 2.5 mi SE 13.8 mph 18.4 mph N/A Rain Light Rain
8:55 PM 76.3 °F - 73.0 °F 90% 29.74 in 2.5 mi SSE 11.5 mph 21.9 mph N/A Rain Light Rain
9:15 PM 76.3 °F - 73.4 °F 91% 29.75 in 2.5 mi SSE 13.8 mph 18.4 mph N/A Rain Light Rain
9:35 PM 76.1 °F - 72.9 °F 90% 29.76 in 3.0 mi SSE 10.4 mph - N/A Rain Light Rain
9:55 PM 76.3 °F - 72.7 °F 89% 29.77 in 5.0 mi SSE 9.2 mph 20.7 mph N/A   Mostly Cloudy
10:15 PM 76.3 °F - 72.5 °F 88% 29.77 in 5.0 mi SSE 12.7 mph 18.4 mph N/A   Mostly Cloudy
10:35 PM 76.3 °F - 72.1 °F 87% 29.77 in 5.0 mi SE 11.5 mph 17.3 mph N/A   Mostly Cloudy
10:55 PM 76.5 °F - 72.0 °F 86% 29.77 in 7.0 mi SSE 11.5 mph 16.1 mph N/A   Scattered Clouds
11:15 PM 76.5 °F - 71.8 °F 85% 29.77 in 7.0 mi SSE 11.5 mph 17.3 mph N/A   Scattered Clouds
11:35 PM 76.5 °F - 71.8 °F 85% 29.77 in 7.0 mi SSE 12.7 mph 17.3 mph N/A   Overcast
11:55 PM 76.5 °F - 71.6 °F 85% 29.76 in 7.0 mi SE 12.7 mph 17.3 mph N/A   Mostly Cloudy